[[{"header":{"parameterUnit":"m.s-1","parameterCategory":1,"la1":30.2991,"la2":30.254,"lo1":-89.0895,"lo2":-89.0444,"dy":0.0017,"dx":0.0017,"nx":28,"ny":28,"refTime":"2025-08-16T03:00:00:Z","depth":0,"parameterNumber":2,"parameterNumberName":"U-component_of_WINDS"},"data":[0,0,0,0,0,0,0,0,0,0,0,0,0,0,0,0,0,0,0,0,0,0,0,0,0,0,0,0,0,0,0,0,0,0,0,0,0,0,0,0,0,0,0,0,0,0,0,0,0,0,0,0,0,0,0,0,0,0,1.4336,1.4337,0,1.4376,1.4376,1.4377,1.4392,1.4392,1.4391,1.4391,1.443,1.4431,1.4432,0,0,0,0,0,0,0,0,0,0,0,0,0,1.427,1.4271,1.4336,1.4337,1.4337,1.4376,1.4377,1.4377,1.4392,1.4392,1.4391,1.4391,1.4429,1.443,1.4432,0,0,0,0,0,0,0,0,0,0,0,0,0,1.4303,1.4272,1.4336,1.4349,1.4351,1.4376,1.4377,1.4377,1.4392,1.4392,1.4391,1.4391,1.4429,1.443,1.4432,1.4446,0,0,1.4437,1.4438,0,0,0,0,0,0,0,0,1.4301,1.4306,1.4347,1.4348,1.435,1.4379,1.4367,1.44,1.4392,1.4376,1.4391,1.4391,1.4413,1.4416,1.4423,1.4448,1.445,1.4437,1.4438,1.4439,1.444,0,0,0,0,0,0,0,1.4299,1.4304,1.4352,1.4347,1.4349,1.4352,1.4357,1.4374,1.4395,1.4377,1.4379,1.4383,1.4413,1.4422,1.4424,1.445,1.4437,1.4439,1.444,1.4441,1.4488,1.4488,0,0,0,0,0,0,1.4295,1.4302,1.4351,1.4353,1.4325,1.4354,1.4359,1.437,1.4395,1.4398,1.4383,1.4384,1.4419,1.4422,1.4426,1.4444,1.4439,1.4441,1.4442,1.4488,1.4488,1.4488,0,0,0,0,0,0,1.4293,1.4299,1.4349,1.4328,1.4334,1.4355,1.4367,1.4371,1.4379,1.4399,1.4403,1.4388,1.4419,1.4423,1.4441,1.4446,1.4441,1.4443,1.4488,1.4488,1.4488,1.448,0,0,0,0,0,0,1.4291,1.4298,1.4305,1.4328,1.4336,1.4364,1.4368,1.4372,1.4382,1.4383,1.4405,1.4408,1.4419,1.4439,1.4443,1.4448,1.4444,1.4487,1.4488,1.4488,1.448,1.448,1.4481,0,0,0,0,0,1.4289,1.43,1.4305,1.4311,1.4344,1.4365,1.4369,1.4382,1.4382,1.4388,1.4401,1.4407,1.4444,1.444,1.4445,1.4451,1.4487,1.4488,1.4488,1.448,1.448,1.4481,0,0,0,0,0,0,1.4276,1.4303,1.4309,1.4328,1.4344,1.4367,1.4375,1.4382,1.4397,1.4397,1.4413,1.4417,1.4434,1.4444,1.4439,1.4466,1.4466,1.4468,1.4458,1.4459,1.4459,1.4456,1.4446,0,0,0,0,0,1.4275,1.4291,1.4314,1.4328,1.4336,1.4354,1.4364,1.4373,1.4389,1.4396,1.441,1.4426,1.4441,1.445,1.4465,1.4482,1.4487,1.4488,1.4488,1.4488,1.4489,1.4499,1.45,1.449,1.449,1.449,0,0,1.4274,1.4291,1.43,1.4326,1.4339,1.4354,1.436,1.4375,1.4386,1.4398,1.4416,1.4427,1.4445,1.4462,1.4471,1.4471,1.4493,1.4489,1.4489,1.449,1.45,1.45,1.4501,1.4491,1.4491,1.4491,0,0,1.4279,1.4294,1.4308,1.4321,1.4342,1.4354,1.4357,1.4379,1.4387,1.4406,1.4415,1.4428,1.4454,1.4466,1.4476,1.4486,1.4492,1.4491,1.4491,1.45,1.4501,1.4502,1.4505,1.4506,1.4492,1.4492,1.4492,0,1.4275,1.4298,1.4314,1.4329,1.434,1.4353,1.4366,1.4378,1.4402,1.4409,1.441,1.4443,1.4456,1.4477,1.4479,1.4487,1.449,1.4488,1.45,1.4501,1.4502,1.4505,1.4506,1.4492,1.4492,1.4492,1.4492,0,1.4292,1.4308,1.4317,1.4341,1.4353,1.4367,1.4384,1.4394,1.4402,1.4414,1.4432,1.4448,1.4467,1.4473,1.448,1.4494,1.4494,1.4497,1.4498,1.4502,1.4506,1.4507,1.4491,1.4491,1.4491,1.4491,0,0,1.4289,1.4322,1.4325,1.4336,1.436,1.4372,1.4387,1.4406,1.4415,1.4431,1.4443,1.4465,1.4468,1.4479,1.4488,1.4496,1.4503,1.4499,1.4499,1.4499,1.452,1.4517,1.4518,1.4508,1.4508,1.4508,1.4518,0,1.4298,1.4326,1.434,1.4361,1.4376,1.4388,1.4401,1.4417,1.4428,1.4442,1.4454,1.4469,1.4472,1.4479,1.4488,1.4501,1.4508,1.45,1.4519,1.4519,1.4514,1.452,1.4517,1.4526,1.452,1.452,1.452,0,1.4311,1.4328,1.4351,1.4373,1.438,1.4392,1.441,1.4424,1.4441,1.4449,1.4462,1.4471,1.4486,1.4486,1.4507,1.4502,1.451,1.4518,1.4518,1.452,1.452,1.4522,1.4529,1.453,1.4522,1.4522,1.4522,0,1.4307,1.4335,1.4353,1.4362,1.4389,1.4396,1.4407,1.4425,1.4436,1.4452,1.4459,1.4476,1.4485,1.4498,1.4512,1.4511,1.4532,1.4533,1.4538,1.4538,1.4541,1.4541,1.4549,1.4547,1.4547,1.4547,1.4547,0,1.4314,1.4328,1.4352,1.4362,1.4378,1.4394,1.4408,1.442,1.4436,1.4449,1.446,1.4472,1.4489,1.4503,1.4513,1.4529,1.4533,1.4539,1.4542,1.4538,1.4537,1.4544,1.4543,1.4548,1.4548,1.4547,1.4547,0,1.4312,1.4329,1.4349,1.4372,1.4378,1.4389,1.4409,1.4419,1.4431,1.4448,1.4452,1.4471,1.4488,1.4502,1.4524,1.4531,1.4547,1.4551,1.4542,1.4543,1.4547,1.4547,1.456,1.4562,1.4559,1.4559,1.4559,0,1.4316,1.4327,1.4352,1.4362,1.4373,1.4389,1.44,1.4416,1.4427,1.4448,1.4456,1.4474,1.4489,1.4515,1.453,1.4546,1.455,1.4554,1.4553,1.4549,1.455,1.4549,1.455,1.4553,1.4553,1.4553,1.4553,0,1.432,1.4328,1.4344,1.4363,1.4377,1.4392,1.4408,1.4415,1.4434,1.4446,1.4463,1.4475,1.4498,1.4515,1.4534,1.4544,1.4552,1.4554,1.4556,1.4552,1.4546,1.4549,1.4541,1.4553,1.4553,1.4553,1.4553,1.4553,1.4321,1.4332,1.4351,1.4369,1.4382,1.4397,1.4408,1.4422,1.4437,1.4458,1.4466,1.4484,1.4501,1.4527,1.4538,1.4552,1.4553,1.4556,1.4557,1.4557,1.4557,1.4544,1.4555,1.4555,1.4555,1.4555,1.4555,0,1.4327,1.434,1.4356,1.4378,1.4392,1.4398,1.4416,1.4427,1.4443,1.4459,1.4474,1.4494,1.4511,1.4528,1.4545,1.4553,1.4557,1.4557,1.4557,1.4559,1.4554,1.4551,1.4554,1.4554,1.4554,1.4554,1.4554,1.4554,1.4331,1.4349,1.4359,1.4383,1.4396,1.4414,1.4424,1.4437,1.445,1.4473,1.4487,1.4498,1.4514,1.4533,1.4549,1.4554,1.4559,1.4559,1.4564,1.4559,1.4559,1.4559,1.4556,1.456,1.456,1.4567,1.4567,1.4567]},{"header":{"parameterUnit":"m.s-1","parameterCategory":1,"la1":30.2991,"la2":30.254,"lo1":-89.0895,"lo2":-89.0444,"dy":0.0017,"dx":0.0017,"nx":28,"ny":28,"refTime":"2025-08-16T03:00:00:Z","depth":0,"parameterNumber":3,"parameterNumberName":"V-component_of_WINDS"},"data":[0,0,0,0,0,0,0,0,0,0,0,0,0,0,0,0,0,0,0,0,0,0,0,0,0,0,0,0,0,0,0,0,0,0,0,0,0,0,0,0,0,0,0,0,0,0,0,0,0,0,0,0,0,0,0,0,0,0,-0.806,-0.806,0,-0.815,-0.8151,-0.8152,-0.8171,-0.817,-0.817,-0.8169,-0.8262,-0.8265,-0.8269,0,0,0,0,0,0,0,0,0,0,0,0,0,-0.7905,-0.7908,-0.8059,-0.8061,-0.8062,-0.815,-0.8151,-0.8152,-0.8171,-0.817,-0.817,-0.8169,-0.8261,-0.8265,-0.8269,0,0,0,0,0,0,0,0,0,0,0,0,0,-0.7981,-0.7909,-0.8059,-0.8082,-0.8085,-0.8149,-0.8151,-0.8152,-0.8171,-0.817,-0.8169,-0.8168,-0.826,-0.8265,-0.8269,-0.8318,0,0,-0.8284,-0.8286,0,0,0,0,0,0,0,0,-0.7977,-0.7987,-0.8077,-0.808,-0.8084,-0.8148,-0.8131,-0.8208,-0.8172,-0.8138,-0.8169,-0.8168,-0.8225,-0.8233,-0.8252,-0.8323,-0.8327,-0.8284,-0.8287,-0.8289,-0.829,0,0,0,0,0,0,0,-0.7972,-0.7983,-0.8095,-0.8079,-0.8083,-0.8088,-0.8098,-0.8146,-0.8186,-0.8141,-0.8143,-0.8153,-0.8227,-0.8247,-0.8254,-0.8328,-0.8284,-0.8288,-0.8291,-0.8293,-0.8445,-0.8446,0,0,0,0,0,0,-0.7962,-0.7979,-0.8092,-0.8098,-0.8027,-0.8091,-0.8102,-0.8128,-0.8186,-0.8194,-0.8154,-0.8154,-0.824,-0.8249,-0.8258,-0.8319,-0.8289,-0.8293,-0.8296,-0.8444,-0.8445,-0.8446,0,0,0,0,0,0,-0.7959,-0.7972,-0.8089,-0.8039,-0.8054,-0.8095,-0.8124,-0.8131,-0.8151,-0.8196,-0.8203,-0.8167,-0.8239,-0.8251,-0.8303,-0.8323,-0.8295,-0.83,-0.8442,-0.8444,-0.8446,-0.8442,0,0,0,0,0,0,-0.7954,-0.7971,-0.7989,-0.8039,-0.8057,-0.8132,-0.8126,-0.8133,-0.8159,-0.816,-0.821,-0.8217,-0.824,-0.8296,-0.8308,-0.8329,-0.8303,-0.8441,-0.8443,-0.8445,-0.8441,-0.8444,-0.8447,0,0,0,0,0,-0.7949,-0.7985,-0.799,-0.8004,-0.8081,-0.8133,-0.8143,-0.8168,-0.8161,-0.818,-0.8209,-0.8216,-0.8319,-0.8301,-0.8315,-0.8337,-0.8439,-0.8442,-0.8445,-0.844,-0.8443,-0.8446,0,0,0,0,0,0,-0.7936,-0.7992,-0.7998,-0.8051,-0.8088,-0.8136,-0.8161,-0.8171,-0.821,-0.8209,-0.8238,-0.8249,-0.83,-0.8324,-0.8303,-0.8388,-0.8379,-0.8384,-0.837,-0.8374,-0.8377,-0.837,-0.8307,0,0,0,0,0,-0.794,-0.7978,-0.8024,-0.8067,-0.8084,-0.812,-0.8144,-0.8159,-0.8198,-0.8214,-0.8246,-0.8284,-0.8325,-0.8351,-0.8391,-0.8445,-0.8457,-0.8467,-0.847,-0.8472,-0.8476,-0.8507,-0.8513,-0.8456,-0.8456,-0.8455,0,0,-0.7947,-0.7982,-0.8004,-0.8065,-0.8095,-0.8134,-0.8132,-0.8174,-0.8203,-0.822,-0.8271,-0.8296,-0.834,-0.8394,-0.8419,-0.8416,-0.8495,-0.8475,-0.8477,-0.848,-0.8511,-0.8516,-0.8521,-0.8457,-0.8457,-0.8457,0,0,-0.7981,-0.8011,-0.805,-0.808,-0.8125,-0.8149,-0.8158,-0.8206,-0.8223,-0.8275,-0.8289,-0.8325,-0.8395,-0.8426,-0.845,-0.8497,-0.8505,-0.851,-0.8524,-0.8554,-0.8558,-0.8562,-0.8579,-0.8585,-0.8514,-0.8514,-0.8514,0,-0.7984,-0.8043,-0.8068,-0.8109,-0.8136,-0.8153,-0.8193,-0.8222,-0.8278,-0.8296,-0.8291,-0.838,-0.8411,-0.8472,-0.8483,-0.8503,-0.8515,-0.8503,-0.8555,-0.856,-0.8564,-0.8581,-0.8587,-0.8514,-0.8514,-0.8514,-0.8514,0,-0.8045,-0.8086,-0.8112,-0.8166,-0.8196,-0.8236,-0.8268,-0.8295,-0.8309,-0.8333,-0.8387,-0.8424,-0.8473,-0.8489,-0.8502,-0.8552,-0.8549,-0.855,-0.8541,-0.8569,-0.8585,-0.8592,-0.8514,-0.8514,-0.8514,-0.8514,0,0,-0.8072,-0.814,-0.815,-0.8175,-0.8226,-0.8259,-0.83,-0.8348,-0.8371,-0.8409,-0.8445,-0.8504,-0.8506,-0.8534,-0.8551,-0.8578,-0.8613,-0.8576,-0.8577,-0.8581,-0.8671,-0.867,-0.8677,-0.8619,-0.862,-0.8622,-0.8668,0,-0.8112,-0.8186,-0.8211,-0.8273,-0.8311,-0.8329,-0.8365,-0.8401,-0.8426,-0.8462,-0.8489,-0.8531,-0.8529,-0.8546,-0.8573,-0.8603,-0.8631,-0.86,-0.8653,-0.8655,-0.8641,-0.8685,-0.8684,-0.8726,-0.8674,-0.8675,-0.8676,0,-0.8168,-0.8207,-0.8273,-0.8321,-0.8338,-0.837,-0.8416,-0.845,-0.8492,-0.8508,-0.854,-0.8556,-0.8601,-0.859,-0.8653,-0.8631,-0.8654,-0.8672,-0.8674,-0.868,-0.8667,-0.8692,-0.874,-0.8746,-0.8686,-0.8685,-0.8684,0,-0.8181,-0.8251,-0.8299,-0.832,-0.8377,-0.8399,-0.8424,-0.8465,-0.8492,-0.8533,-0.8551,-0.8596,-0.8621,-0.8656,-0.8683,-0.8673,-0.8744,-0.8735,-0.8759,-0.8758,-0.8772,-0.8771,-0.8824,-0.8788,-0.8788,-0.8788,-0.8787,0,-0.8222,-0.8262,-0.8306,-0.8335,-0.8381,-0.8409,-0.8453,-0.8479,-0.8516,-0.8552,-0.857,-0.8603,-0.8638,-0.8676,-0.8699,-0.8747,-0.8759,-0.8773,-0.8778,-0.8771,-0.8769,-0.8787,-0.8784,-0.8789,-0.8789,-0.8789,-0.8788,0,-0.8244,-0.8275,-0.8329,-0.8379,-0.8393,-0.8424,-0.8467,-0.8497,-0.8522,-0.8567,-0.858,-0.862,-0.8666,-0.8697,-0.8756,-0.8771,-0.8824,-0.8829,-0.881,-0.8812,-0.8834,-0.8832,-0.89,-0.8911,-0.8867,-0.8867,-0.8868,0,-0.8269,-0.8299,-0.8353,-0.8378,-0.8403,-0.8443,-0.8471,-0.8501,-0.853,-0.858,-0.8604,-0.8652,-0.8691,-0.8763,-0.8798,-0.8844,-0.885,-0.8871,-0.8857,-0.8849,-0.885,-0.8848,-0.8851,-0.8873,-0.8873,-0.8873,-0.8873,0,-0.8308,-0.8322,-0.8362,-0.8407,-0.844,-0.8477,-0.8514,-0.8534,-0.8571,-0.8602,-0.8649,-0.868,-0.874,-0.8787,-0.8836,-0.8862,-0.8874,-0.8878,-0.8886,-0.8878,-0.8866,-0.8873,-0.8815,-0.8876,-0.8876,-0.8875,-0.8875,-0.8875,-0.8332,-0.8361,-0.8403,-0.8447,-0.8478,-0.8513,-0.8544,-0.8573,-0.8613,-0.8664,-0.868,-0.8729,-0.8771,-0.8838,-0.8866,-0.8905,-0.8903,-0.8915,-0.8917,-0.892,-0.892,-0.886,-0.8914,-0.8914,-0.8914,-0.8914,-0.8914,0,-0.8373,-0.8401,-0.8441,-0.8493,-0.8528,-0.8536,-0.8578,-0.8607,-0.865,-0.8688,-0.8726,-0.8781,-0.8827,-0.8866,-0.8913,-0.8937,-0.8944,-0.8949,-0.8947,-0.8953,-0.8918,-0.8907,-0.8943,-0.8942,-0.8942,-0.8942,-0.8942,-0.8942,-0.8398,-0.8447,-0.8466,-0.8532,-0.856,-0.8608,-0.8631,-0.8664,-0.8695,-0.8755,-0.8793,-0.8818,-0.8857,-0.8908,-0.895,-0.8961,-0.8977,-0.8981,-0.8992,-0.8959,-0.8956,-0.8952,-0.8942,-0.8984,-0.8984,-0.9024,-0.9024,-0.9025]}]]